Regional Weather Roundup
Issued by NWS

Home | Current Version | Previous Version | Graphics & Text | Print | Product List | Glossary On
Versions: 1 2 3 4 5 6 7 8 9 10 11 12 13 14 15 16 17 18 19 20 21 22 23 24 25 26 27 28 29 30 31 32 33 34 35 36 37 38 39 40 41 42 43 44 45 46 47 48 49 50
000
ASUS43 KDMX 271606
RWRIA

WEATHER ROUNDUP FOR IOWA
NATIONAL WEATHER SERVICE DES MOINES IA
1100 AM CDT SAT MAY 27 2017

NOTE: "FAIR" INDICATES FEW OR NO CLOUDS BELOW 12,000 FEET WITH NO
SIGNIFICANT WEATHER AND/OR OBSTRUCTIONS TO VISIBILITY.

* - THESE STATIONS ARE NOT NWS STATIONS...THUS NOT UNDER NWS
QUALITY CONTROL.  THEY ALSO DO NOT REPORT WEATHER SUCH
AS PRECIPITATION OR FOG.

IAZ001>003-012>014-020>022-031>034-043>046-271700-
   NORTHWEST IOWA

CITY           SKY/WX    TMP DP  RH WIND       PRES   REMARKS
CARROLL *      CLOUDY    66  54  63 SW13      29.96R
CHEROKEE *     CLOUDY    61  53  75 N3        29.94R
DENISON *      CLOUDY    63  52  67 S5        29.98R
LE MARS *      CLOUDY    59  54  82 N7G14     29.95R
ORANGE CITY *  LGT RAIN  59  54  82 N3        29.95S
SHELDON *      LGT RAIN  57  54  88 N3        29.93F
SIOUX CITY     CLOUDY    63  51  65 NE7       29.94R
SPENCER        CLOUDY    62  53  72 N10       29.94F
STORM LAKE *   CLOUDY    66  46  48 E5        29.93S
$$

IAZ055>058-069>071-079>083-090>094-271700-
   SOUTHWEST IOWA

CITY           SKY/WX    TMP DP  RH WIND       PRES   REMARKS
ATLANTIC *     RAIN      57  55  94 N16G23    29.91F
AUDUBON *      HVY RAIN  55  52  88 CALM      29.98S
CLARINDA *     CLOUDY    61  61 100 W7        29.92R
COUNCIL BLFS * RAIN      55  55 100 N12       29.90F
CRESTON *      LGT RAIN  61  59  94 S7        29.90F
HARLAN  *      RAIN      57  57 100 NE7       29.98F
LAMONI         LGT RAIN  62  59  90 S7        29.93F
RED OAK *      LGT RAIN  59  57  94 N14       29.90R
SHENANDOAH *   CLOUDY    59  57  94 N13       29.91R
$$

IAZ047>049-059>061-072>074-084-271700-
   CENTRAL IOWA

CITY           SKY/WX    TMP DP  RH WIND       PRES   REMARKS
AMES           CLOUDY    70  62  76 E3        29.91S
ANKENY *       CLOUDY    70  63  78 SE6       29.90F
BOONE *        CLOUDY    70  57  64 E8        29.90S
CHARITON *     CLOUDY    70  64  83 S13       29.93R
DES MOINES     CLOUDY    69  64  84 E6        29.89F THUNDER
GRINNELL*      CLOUDY    67  63  86 S6        29.94S
KNOXVILLE *    CLOUDY    72  63  73 S6        29.90S
MARSHALLTOWN   CLOUDY    70  61  73 SE5       29.90F
NEWTON *       CLOUDY    70  61  73 S8        29.90F
PELLA *        CLOUDY    72  62  71 SE3       29.92F
PERRY *        CLOUDY    68  58  71 E6        29.90S
$$

IAZ004>006-015-016-023>025-035-036-271700-
   NORTH CENTRAL IOWA

CITY           SKY/WX    TMP DP  RH WIND       PRES   REMARKS
ALGONA *       CLOUDY    68  48  49 NE7       29.94R
CLARION *      CLOUDY    70  48  46 NE5       29.92S
ESTHERVILLE    CLOUDY    66  50  56 NW13      29.93S
FORT DODGE *   CLOUDY    68  54  60 N3        29.93S
MASON CITY     PTSUNNY   71  47  42 N8        29.94R
FOREST CITY *    N/A     72  39  30 N5        29.93S
WEBSTER CITY * CLOUDY    72  46  40 NE6       29.90S
IOWA FALLS *     N/A     72  51  46 CALM      29.93R
$$

IAZ007>011-017>019-026>030-037>042-050>054-066-271700-
   NORTHEAST IOWA

CITY           SKY/WX    TMP DP  RH WIND       PRES   REMARKS
CEDAR RAPIDS   CLOUDY    64  63  96 SE5       29.92R FOG
CHARLES CITY * MOSUNNY   68  57  68 CALM      29.93R
CLINTON *      CLOUDY    61  58  90 VRB3      29.94S FOG
DECORAH *      SUNNY     66  59  77 VRB3      29.91F
DUBUQUE        CLOUDY    64  60  87 VRB5      29.93S
MONTICELLO *   CLOUDY    63  61  94 S6        29.92S
OELWEIN *      PTSUNNY   64  64 100 S6        29.93R
WATERLOO       CLOUDY    68  60  75 CALM      29.91R
$$

IAZ064-065-067-068-078-271700-
   EAST CENTRAL IOWA

CITY           SKY/WX    TMP DP  RH WIND       PRES   REMARKS
DAVENPORT      CLOUDY    62  58  86 E8        29.94R
IOWA CITY      CLOUDY    63  59  87 VRB3      29.95R
MT. PLEASANT * CLOUDY    69  60  74 SE3       29.93S
MUSCATINE *    CLOUDY    64  59  82 CALM      29.94R
QUAD CITIES    CLOUDY    63  58  83 SE5       29.93R HAZE
$$

IAZ062-063-075>077-085>089-095>099-271700-
   SOUTHEAST IOWA

CITY           SKY/WX    TMP DP  RH WIND       PRES   REMARKS
BURLINGTON     CLOUDY    63  60  90 VRB3      29.93R
FAIRFIELD *    MOSUNNY   68  63  83 VRB3      29.93R
FORT MADISON * CLOUDY    63  63 100 NE5       29.93S FOG
KEOKUK *       MOSUNNY   66  61  82 E6        29.91S
OSKALOOSA *      N/A     69  62  76 S5        29.93S
CENTERVILLE *    N/A     73  63  68 CALM      29.95R
OTTUMWA        CLOUDY    71  63  75 VRB3      29.92S
WASHINGTON *   CLOUDY    63  63 100 E5        29.95S FOG
$$

ABBREVIATIONS USED IN REMARKS
   TC - TEMPERATURES IN CELSIUS
  WCI - WIND CHILL INDEX
   HX - HEAT INDEX
  VSB - VISIBILITY
$$





USA.gov is the U.S. government's official web portal to all federal, state and local government web resources and services.